Location: *
(52.2090°N, 4.1550°W)
Time: 22:20:45
(UTC+00:00)

Meteor 1-10 Rocket - Pass Details

Date: 19 July 2019
Orbit: 836 x 910 km, 81.2° (Epoch: 18 August)

Event Time Altitude Azimuth Distance (km) Brightness Sun altitude
Rises 22:12:37 0° 348° (NNW) 3,417 8.9 -11.7°
Reaches altitude 10° 22:15:05 10° 352° (N) 2,485 7.8 -11.9°
Maximum altitude 22:20:39 60° 73° (ENE) 978 4.5 -12.3°
Enters shadow 22:24:59 17° 150° (SSE) 2,031 5.5 -12.6°
